Weather in Volgino

Russia / Novgorod Oblast     58°26′46″N   33°52′01″E
temp.,
°C
wind,
m/s
gust,
m/s
humid.,
%
clouds,
%
prec.,
mm/h
press.,
hPa
HPBL,
m
7 march, sun
sun700:00−5ssw61490100 0.9 9991139
03:00−3sw61493100 1.6 9931139
06:00−2sw61392100 1.6 988964
09:00−4w41269100 3.9 9881793
12:00−4w7135273 0.2 9892731
15:00−4w6115987 0.5 9891960
18:00−7w4107672 0.3 990824
21:00−7w6138785 0.8 9901236
8 march, mon
mon800:00−7wnw71392100 0.9 9911226
03:00−8nnw51189100 1.4 994773
06:00−8nnw4989100 0.1 997690
09:00−9nnw5987100 0.3 1001649
12:00−9nnw4781100 0.1 1005687
15:00−9nnw5781100 0.1 1008770
18:00−11nnw4886100 0.1 1010641
21:00−14nnw389498 0.1 1013335
9 march, tue
tue900:00−17nnw259622 0.0 1015154
03:00−19nnw239511 0.0 1016110
06:00−21nnw23950 0.0 101897
09:00−20n138924 0.0 1019222
12:00−15n237142 0.0 1020541
15:00−12n236222 0.0 1021832
18:00−14nne22820 0.0 102134
21:00−18e22920 0.0 102432
10 march, wed
wed1000:00−19e22930 0.0 102445
03:00−20ese22930 0.0 102545
06:00−21e22930 0.0 102652
09:00−19e23850 0.0 1027153
12:00−13e24680 0.0 1027392
15:00−10ese24668 0.0 1026541
18:00−13e228295 0.0 102644
21:00−15ese248997 0.0 102690
11 march, thu
thu1100:00−16ese2488100 0.0 1026106
03:00−18ese368873 0.0 1025135
06:00−18ese39850 0.0 1023220
09:00−15ese4107710 0.0 1022340
12:00−10se598595 0.1 1019527
15:00−8se598698 0.2 1017595
18:00−8se41089100 0.1 1013513
21:00−7sse5139396 0.1 1010442